Location: Bellerive
(46.9237°N, 7.0223°E)
Time: 09:14:14
(UTC+00:00)

Cosmos 2181 Rocket - Pass Details

Date: 09 April 2020
Orbit: 952 x 1014 km, 82.9° (Epoch: 06 June)

Event Time Altitude Azimuth Distance (km) Brightness Sun altitude
Exits shadow 19:28:06 - 164° (SSE) 3,298 6.4 -12.9°
Reaches altitude 10° 19:29:41 10° 160° (SSE) 2,724 5.9 -13.2°
Maximum altitude 19:35:33 45° 90° (E) 1,305 4.3 -14.0°
Drops below altitude 10° 19:41:22 10° 20° (NNE) 2,706 6.4 -14.9°
Sets 19:43:57 0° 14° (NNE) 3,651 7.2 -15.3°
